Deer Park, WA
on Tuesday, January 29, 2013

Tuesday
Previous Day Next Day
Daily Summary
 ActualAverageRecord
Temperature
Mean Temperature °F 29°F  
Max Temperature 32°F 36°F 46°F (2012)
Min Temperature 26°F 22°F 3°F (2002)
Degree Days
Heating Degree Days 36 36  
Month to date heating degree days 1247 1097  
Since 1 July heating degree days 4040 4324  
Cooling Degree Days 0 0  
Month to date cooling degree days 0 0  
Year to date cooling degree days 0 0  
Moisture
Dew Point 29°F   
Average Humidity 93    
Maximum Humidity 100    
Minimum Humidity 85    
Precipitation
Precipitation 0.08 in 0.06 in 0.43 in (2008)
Month to date precipitation 1.47 2.50  
Year to date precipitation 1.47 2.50  
Wind
Wind Speed 2 mph   
Max Wind Speed 7 mph   
Max Gust Speed 8 mph   
Visibility 5 miles   
Events Snow   

Key: T is trace of precipitation, MM is missing value
Source: NWS Daily Summary
Time(PST)TemperatureDew PointHumidity Pressure Visibility Wind DirectionWind SpeedGust SpeedPrecipitationEvents Conditions
12:53 AM 27.0°F 26.1°F 96% 29.91 in 7.0 miles Calm Calm - N/A   Overcast
1:28 AM 26.6°F 26.6°F 100% 29.86 in 8.0 miles Calm Calm - N/A   Overcast
1:53 AM 28.0°F 26.1°F 92% 29.94 in 8.0 miles NW 3.5 mph - N/A   Overcast
2:53 AM 27.0°F 26.1°F 96% 29.96 in 9.0 miles Calm Calm - N/A   Overcast
4:53 AM 28.0°F 26.1°F 92% 30.00 in 8.0 miles Calm Calm - N/A   Overcast
5:53 AM 27.0°F 26.1°F 96% 30.03 in 8.0 miles Calm Calm - N/A   Overcast
6:53 AM 27.0°F 26.1°F 96% 30.06 in 8.0 miles Calm Calm - N/A   Overcast
7:53 AM 27.0°F 26.1°F 96% 30.09 in 7.0 miles Calm Calm - N/A   Overcast
8:09 AM 26.6°F 26.6°F 100% 30.02 in 5.0 miles Calm Calm - N/A   Overcast
8:51 AM 26.6°F 26.6°F 100% 30.05 in 5.0 miles Calm Calm - N/A   Overcast
8:53 AM 27.0°F 26.1°F 96% 30.13 in 5.0 miles Calm Calm - N/A   Overcast
9:11 AM 26.6°F 26.6°F 100% 30.06 in 4.0 miles Calm Calm - N/A   Overcast
9:22 AM 28.4°F 26.6°F 93% 30.07 in 5.0 miles Calm Calm - N/A   Overcast
9:53 AM 28.0°F 27.0°F 96% 30.16 in 5.0 miles Calm Calm - N/A   Overcast
10:50 AM 30.2°F 26.6°F 86% 30.11 in 6.0 miles Calm Calm - N/A   Overcast
10:53 AM 30.0°F 27.0°F 88% 30.18 in 6.0 miles Calm Calm - N/A   Overcast
11:53 AM 30.9°F 28.0°F 89% 30.19 in 8.0 miles Calm Calm - N/A   Overcast
12:53 PM 30.9°F 28.0°F 89% 30.20 in 10.0 miles Calm Calm - N/A   Partly Cloudy
1:53 PM 28.9°F 27.0°F 92% 30.21 in 10.0 miles South 4.6 mph - N/A   Scattered Clouds
2:53 PM 30.0°F 28.0°F 92% 30.20 in 10.0 miles SSE 4.6 mph - N/A   Mostly Cloudy
3:53 PM 32.0°F 30.0°F 92% 30.21 in 7.0 miles SE 5.8 mph - N/A   Overcast
4:53 PM 30.9°F 30.0°F 96% 30.21 in 8.0 miles SSE 3.5 mph - N/A   Overcast
5:46 PM 32.0°F 30.2°F 93% 30.15 in 1.8 miles SSE 6.9 mph - 0.00 in Snow Light Snow
5:53 PM 32.0°F 30.0°F 92% 30.22 in 1.5 miles SSE 5.8 mph - 0.00 in Snow Light Snow
6:42 PM 30.2°F 30.2°F 100% 30.15 in 1.2 miles South 5.8 mph - 0.02 in Snow Light Snow
6:53 PM 30.9°F 30.9°F 100% 30.21 in 1.5 miles SSE 5.8 mph - 0.03 in Snow Light Snow
7:13 PM 32.0°F 30.2°F 93% 30.14 in 1.5 miles SSE 4.6 mph - 0.00 in Snow Light Snow
7:53 PM 32.0°F 30.9°F 96% 30.20 in 1.0 miles Calm Calm - 0.02 in Snow Light Snow
8:14 PM 30.2°F 30.2°F 100% 30.13 in 0.8 miles Calm Calm - 0.01 in Snow Light Snow
8:28 PM 32.0°F 30.2°F 93% 30.13 in 1.0 miles Calm Calm - 0.02 in Snow Light Snow
8:40 PM 30.2°F 30.2°F 100% 30.12 in 1.2 miles ESE 3.5 mph - 0.02 in Snow Light Snow
8:49 PM 30.2°F 30.2°F 100% 30.12 in 1.5 miles SE 3.5 mph - 0.02 in Snow Light Snow
8:53 PM 30.9°F 30.9°F 100% 30.19 in 1.8 miles SE 3.5 mph - 0.02 in Snow Light Snow
9:01 PM 30.2°F 30.2°F 100% 30.12 in 2.0 miles Calm Calm - 0.01 in Snow Light Snow
9:24 PM 30.2°F 30.2°F 100% 30.11 in 3.0 miles SSE 3.5 mph - 0.01 in Snow Light Snow
9:53 PM 30.9°F 30.9°F 100% 30.17 in 3.0 miles Calm Calm - 0.01 in   Overcast
10:30 PM 30.2°F 30.2°F 100% 30.09 in 4.0 miles Calm Calm - N/A   Overcast
10:50 PM 30.2°F 30.2°F 100% 30.10 in 3.0 miles Calm Calm - N/A   Overcast
10:53 PM 30.9°F 30.0°F 96% 30.17 in 3.0 miles Calm Calm - N/A   Overcast
11:34 PM 32.0°F 30.2°F 93% 30.10 in 9.0 miles Calm Calm - N/A   Overcast
11:53 PM 32.0°F 30.9°F 96% 30.16 in 9.0 miles Calm Calm - N/A   Overcast
Moon Phase
Jan. 29 Feb. 03 Feb. 10 Feb. 17 Feb. 25
Sunrise:07:20 AM (PST) Moon Rise:08:05 PM (PST)1/29
Sunset:04:45 PM (PST) Moon Set:08:03 AM (PST)1/29

Copyright © 2014 The Weather Underground, Inc.